{"data":{"norad_id":63899,"intl_designator":"2025-095K","name":"STARLINK-34134","alt_names":[],"object_type":"PAYLOAD","status":"ACTIVE","operator":null,"country":"US","launch_date":"2025-05-10","launch_site_code":"AFETR","launch_vehicle":null,"mission":null,"orbit_class":"UNKNOWN","rcs_meters":null,"size_class":null,"mass_kg":null,"dimensions":null,"purposes":["comms"],"wikipedia_slug":null,"has_3d_model":false,"image_url":null,"decayed_at":null,"tle_current":{"epoch":"2026-09-20T01:33:25.966368Z","epoch_age_seconds":184599,"freshness":"STALE","line1":"1 63899U 25095K   26263.06488387  .00011077  00000+0  41129-3 0  9994","line2":"2 63899  42.9997 158.5991 0001325 262.9710  97.0991 15.27592628 77515","mean_motion":15.27592628,"eccentricity":0.0001325,"inclination_deg":42.9997,"raan_deg":158.5991,"arg_perigee_deg":262.971,"mean_anomaly_deg":97.0991,"bstar":0.00041129,"rev_number":7751,"period_min":94.265969447975,"perigee_km":482.10218137767,"apogee_km":483.92038567281,"semimajor_km":6861.1482835252,"source":"CELESTRAK","updated_at":"2026-09-21T09:00:35.144770Z"}}}